Flag for U.S.A. Weather past 2 weeks in Germantown, Maryland, U.S.A.

Now
52 °F

Cloudy.


Feels Like: 49 °F
Forecast: 42 / 66 °F
Wind: 8 mph from Northwest

Location: Frederick Municipal Airport

Current Time: Apr 27, 2015 at 9:26:10 PM

Latest Report: Apr 27, 2015 at 8:50 PM


Visibility: 10 mi

Pressure: 29.89 "Hg

Humidity: 50%

Dew point: 34 °F

Location of GermantownLocation

Historic Weather in Germantown — Graph

°F

Germantown temperature yesterday

Maximum temperature yesterday: 64 °F (at 4:50 PM)
Minimum temperature yesterday: 41 °F (at 12:05 AM)
Average temperature yesterday: 47 °F

Past Weeks' High & Low Weather Summary

 TemperatureHumidityPressure
High82 °F (Apr 18, 3:50 PM)100% (Apr 15, 6:50 AM)30.52 "Hg (Apr 15, 6:50 AM)
Low32 °F (Apr 25, 2:40 AM)12% (Apr 16, 1:47 PM)29.49 "Hg (Apr 20, 8:30 PM)
Average53 °F57%29.99 "Hg
* Reported Apr 12 7:50 PM — Apr 27 6:45 PM, Germantown, Weather by CustomWeather, © 2015

Note: Actual official high and low records may vary slightly from our data, if they occured in-between our weather recording intervals... More about our weather records

Advertising

Germantown weather history for previous 24 hours

 ConditionsComfort  
Time TempWeatherWind HumidityBarometerVisibility
6:45 PM
Mon, Apr 27
55 °FBroken clouds.10 mph41%29.86 "Hg10 mi
5:50 PM57 °FPartly sunny.12 mph36%29.84 "Hg10 mi
4:50 PM57 °FPartly sunny.12 mph33%29.82 "Hg10 mi
3:48 PM57 °FBroken clouds.12 mph31%29.81 "Hg10 mi
2:49 PM61 °FBroken clouds.13 mph27%29.80 "Hg10 mi
1:47 PM59 °FPartly sunny.9 mph31%29.82 "Hg10 mi
12:52 PM55 °FOvercast.12 mph36%29.84 "Hg10 mi
11:47 AM61 °FScattered clouds.12 mph31%29.82 "Hg10 mi
10:47 AM55 °FScattered clouds.No wind38%29.82 "Hg10 mi
9:56 AM54 °FOvercast.8 mph41%29.82 "Hg10 mi
8:45 AM52 °FOvercast.No wind50%29.82 "Hg10 mi
7:45 AM46 °FOvercast.No wind66%29.80 "Hg10 mi
5:50 AM41 °FOvercast.3 mph76%29.78 "Hg10 mi
5:30 AM41 °FOvercast.No wind76%29.78 "Hg10 mi
5:10 AM41 °FOvercast.No wind76%29.78 "Hg10 mi
4:50 AM41 °FOvercast.No wind76%29.78 "Hg10 mi
4:30 AM39 °FOvercast.No wind81%29.78 "Hg10 mi
4:10 AM34 °FPassing clouds.No wind87%29.78 "Hg10 mi
3:50 AM36 °FClear.No wind81%29.78 "Hg10 mi
3:30 AM39 °FClear.No wind75%29.78 "Hg10 mi
3:10 AM41 °FClear.No wind66%29.78 "Hg10 mi
2:50 AM39 °FClear.No wind70%29.78 "Hg10 mi
2:30 AM41 °FClear.3 mph70%29.78 "Hg10 mi
2:10 AM41 °FClear.3 mph70%29.78 "Hg10 mi
1:50 AM45 °FPassing clouds.5 mph61%29.78 "Hg10 mi
1:30 AM46 °FPassing clouds.5 mph57%29.79 "Hg10 mi
1:10 AM46 °FOvercast.3 mph57%29.79 "Hg10 mi
12:50 AM46 °FOvercast.5 mph57%29.79 "Hg10 mi
12:30 AM46 °FOvercast.5 mph57%29.79 "Hg10 mi
12:10 AM46 °FPassing clouds.3 mph57%29.79 "Hg10 mi
11:30 PM
Sun, Apr 26
43 °FOvercast.No wind71%29.78 "Hg10 mi
11:10 PM41 °FPassing clouds.No wind70%29.77 "Hg10 mi
10:50 PM45 °FPassing clouds.No wind71%29.77 "Hg10 mi
10:30 PM45 °FPassing clouds.No wind61%29.76 "Hg10 mi
10:10 PM43 °FPassing clouds.No wind71%29.75 "Hg10 mi
9:45 PM46 °FPassing clouds.No wind66%29.74 "Hg10 mi
9:25 PM46 °FClear.No wind62%29.74 "Hg10 mi
9:05 PM45 °FClear.No wind61%29.73 "Hg10 mi
Weather by CustomWeather, © 2015

See weather overviewHow to use our weather pages